Regional Weather Roundup
Issued by NWS Goodland, KS

Home | Current Version | Previous Version | Graphics & Text | Print | Product List | Glossary On
Versions: 1 2 3 4 5 6 7 8 9 10 11 12 13 14 15 16 17 18 19 20 21 22 23 24 25 26 27 28 29 30 31 32 33 34 35 36 37 38 39 40 41 42 43 44 45 46 47 48 49 50
000
ASUS43 KGLD 201059
RWRGLD

GOODLAND FORECAST AREA HOURLY WEATHER ROUNDUP
NATIONAL WEATHER SERVICE GOODLAND KS
500 AM MDT SUN AUG 20 2017

...OFFICIAL OBSERVATIONS...

CITY           SKY/WX    TMP DP  RH WIND       PRES   REMARKS
GOODLAND KS    CLOUDY    63  52  67 SW7       29.94R
HILL CITY KS   CLEAR     72  65  78 SW12      29.87S
IMPERIAL NEB   CLEAR     60  55  83 CALM      29.91R
MCCOOK NEB     CLEAR     65  57  75 SW7       29.88R
AKRON CO       CLOUDY    64  44  48 W8        29.99S
BURLINGTON CO  CLEAR     66  53  63 SW9       29.98R
LIMON CO       CLOUDY    51  49  92 N7        30.07S
$$

...UNOFFICIAL OBSERVATIONS...

CITY           SKY/WX    TMP DP  RH WIND       PRES   REMARKS
LENORA KS        N/A     70  32  24 SW10        N/A
NORTON KS      CLEAR     68  57  68 CALM      29.85S
TRENTON NEB      N/A     65  32  29 W6          N/A
KIT CARSON CO    N/A     59  52  78 CALM        N/A
YUMA CO        FAIR      59  37  44 W9        29.95S
$$




USA.gov is the U.S. government's official web portal to all federal, state and local government web resources and services.